Location: Carella
(45.8167°N, 9.2667°E)
Time: 13:45:14
(UTC+00:00)

MOS 1 Rocket - Visible Passes

Search period start: 06 August 2020 00:00
Search period end: 16 August 2020 00:00
Orbit: 615 x 829 km, 97.4° (Epoch: 05 August)

Date Brightness Start Highest point End Pass type
(mag) Time Alt. Az. Time Alt. Az. Time Alt. Az.
06 Aug 5.6 19:53:38 10° N 19:58:24 32° WNW 20:03:10 10° SW visible
07 Aug 6.7 20:44:08 10° NNW 20:46:47 14° WNW 20:49:26 10° W visible
08 Aug 5.6 19:53:25 10° N 19:58:12 32° WNW 20:02:54 10° SW visible
09 Aug 3.9 19:03:46 10° N 19:09:15 79° WNW 19:14:35 10° SSW visible
09 Aug 6.7 20:43:58 10° NNW 20:46:34 14° WNW 20:49:09 10° W visible
10 Aug 5.7 19:53:14 10° N 19:57:59 32° WNW 20:02:39 10° SW visible
11 Aug 3.9 19:03:34 10° N 19:09:02 78° WNW 19:14:20 10° SSW visible
11 Aug 6.7 20:43:48 10° NNW 20:46:20 13° NW 20:48:51 10° W visible
12 Aug 5.7 19:53:02 10° N 19:57:46 31° WNW 20:02:23 10° SW visible
13 Aug 3.9 19:03:22 10° N 19:08:50 77° WNW 19:14:05 10° SSW visible
13 Aug 6.7 20:43:40 10° NNW 20:46:06 13° NW 20:48:32 10° W visible
14 Aug 5.7 19:52:52 10° N 19:57:33 31° WNW 20:02:06 10° SW visible
15 Aug 3.9 19:03:11 10° N 19:08:37 76° WNW 19:13:49 10° SSW visible
15 Aug 6.7 20:43:32 10° NNW 20:45:52 13° NW 20:48:12 10° W visible
